www.pogodaiklimat.ru
Время
(UTC), дата
22:53 29.12
23:53 29.12
00:53 29.12
01:53 29.12
02:53 29.12
03:53 29.12
04:53 29.12
05:53 29.12
06:53 29.12
07:53 30.12
08:53 30.12
09:53 30.12
10:53 30.12
11:53 30.12
12:53 30.12
13:53 30.12
14:53 30.12
15:53 30.12
16:53 30.12
17:53 30.12
18:53 30.12
19:53 30.12
20:53 30.12
21:53 30.12
22:53 30.12
23:53 30.12
00:53 30.12
01:53 30.12
02:53 30.12
03:53 30.12
04:53 30.12
05:53 30.12
06:53 30.12
07:53 31.12
08:53 31.12
09:53 31.12
10:53 31.12
11:53 31.12
12:53 31.12
13:53 31.12
14:53 31.12
15:53 31.12
16:53 31.12
17:53 31.12
18:53 31.12
19:53 31.12
20:53 31.12
21:53 31.12
Ветер
(напр.,м/с)
Видим. Явления Облачность Т
(С)
Тd
(С)
f
(%)
Тe
(С)
Тes
(С)
Комфортность P
(гПа)
Po
(гПа)
Тmin
(С)
Tmax
(С)
R
(мм)
R24
(мм)
S
(см)
З 3 16 км 8/2 1110 м
[средняя]
+15.0 +7.8 62 +14 +15 1019.5 1014.9 +13.3 +16.7
ЮЗ 3 16 км 8/2 990 м
[средняя]
+14.4 +8.9 70 +13 +13 1019.5 1014.9
ЮЗ 2 16 км 10/0 4500 м
[средняя]
+14.4 +8.3 67 +14 +14 1018.9 1014.3
Ю 1 16 км 8/0 4500 м
[средняя]
+14.4 +8.9 70 +14 +14 1018.1 1013.6
нст 1 16 км 10/2 900 м
[средняя]
+13.9 +8.3 69 +14 +14 1018.0 1013.3
ЮВ 1 16 км 10/2 900 м
[средняя]
+13.9 +8.9 72 +14 +14 1018.2 1013.6
В 1 16 км 8/2 660 м
[средняя]
+13.3 +8.3 72 +13 +13 1017.7 1013.3 +12.8 +15.0
0 16 км 8/2 660 м
[средняя]
+13.3 +8.3 72 +13 +13 1017.9 1013.3
В 2 16 км 8/2 660 м
[средняя]
+12.8 +8.3 74 +12 +12 1017.1 1012.6
СВ 3 16 км 8/2 660 м
[средняя]
+13.3 +7.8 69 +12 +12 1016.6 1011.9
СВ 4 16 км 8/2 1650 м
[средняя]
+12.8 +7.2 69 +11 +11 1016.5 1011.9
СВ 4 16 км 10/2 630 м
[средняя]
+12.2 +6.7 69 +10 +10 1016.0 1011.6
СВ 5 16 км 10/8 630 м
[средняя]
+12.2 +4.4 59 +10 +10 1015.3 1010.9 +12.2 +13.9
В 3 16 км 10/2 630 м
[средняя]
+11.7 +2.8 54 +10 +10 1015.1 1010.6
СВ 4 16 км 10/5 630 м
[средняя]
+12.2 +1.1 47 +10 +10 1015.1 1010.6
СВ 4 16 км 8/5 660 м
[средняя]
+12.2 +1.1 47 +11 +11 1015.5 1010.9
СВ 3 16 км 8/2 750 м
[средняя]
+12.8 +1.7 47 +12 +12 1015.9 1011.6
СВ 4 16 км 8/2 750 м
[средняя]
+13.3 +2.8 49 +12 +12 1016.3 1011.9
СВ 4 16 км 8/2 810 м
[средняя]
+14.4 +1.1 40 +13 +14 1016.5 1011.9 +11.7 +14.4
СВ 4 16 км 8/2 840 м
[средняя]
+15.6 +1.1 37 +15 +16 1015.9 1011.2
нст 3 16 км 8/2 960 м
[средняя]
+15.6 +1.7 39 +15 +17 1015.0 1010.6
ЮЗ 2 16 км 8/2 1050 м
[средняя]
+16.1 +1.1 36 +16 +18 1014.1 1009.5
0 16 км 8/2 900 м
[средняя]
+17.2 0.0 31 +17 +20 1013.9 1009.2
0 16 км 2/0 4500 м
[средняя]
+17.8 +0.6 31 +18 +23 1013.9 1009.2
ЮЗ 3 16 км 2/0 4500 м
[средняя]
+16.7 +2.2 38 +17 +18 1014.2 1009.5 +14.4 +17.8
З 4 16 км 8/0 3000 м
[средняя]
+16.1 +2.2 39 +15 +16 1014.3 1009.5
З 3 16 км 5/0 3600 м
[средняя]
+15.6 +5.0 49 +15 +15 1014.3 1009.9
Ю 1 16 км 5/0 3600 м
[средняя]
+16.1 +2.2 39 +17 +17 1014.1 1009.5
Ю 1 16 км 2/0 4500 м
[средняя]
+15.0 +3.9 47 +15 +15 1014.4 1009.9
0 16 км 5/0 4500 м
[средняя]
+15.0 +3.3 45 +15 +15 1014.6 1010.2
0 16 км 8/0 4500 м
[средняя]
+14.4 +3.3 47 +14 +14 1014.8 1010.2 +13.9 +16.7
В 3 16 км 8/0 3000 м
[средняя]
+13.9 +4.4 53 +13 +13 1015.0 1010.6
СВ 3 16 км 8/0 3000 м
[средняя]
+14.4 +3.3 47 +14 +14 1014.9 1010.2
нст 2 16 км 8/0 3000 м
[средняя]
+15.6 +1.7 39 +15 +15 1014.3 1009.9
0 16 км 5/0 3000 м
[средняя]
+13.3 +2.2 47 +13 +13 1014.7 1010.2
0 16 км 5/0 3000 м
[средняя]
+11.7 +2.8 54 +11 +11 1014.7 1010.2
0 16 км 8/0 3000 м
[средняя]
+10.6 +3.3 61 +10 +10 1014.3 1009.9 +10.6 +15.6
С 3 16 км 5/0 3300 м
[средняя]
+15.6 -0.6 33 +15 +15 1014.4 1009.9
С 2 16 км 2/0 3300 м
[средняя]
+15.6 -0.6 33 +15 +15 1014.6 1009.9
СЗ 2 16 км 2/2 1500 м
[средняя]
+15.0 -0.6 34 +15 +15 1015.1 1010.6
ЮВ 1 16 км 2/2 1800 м
[средняя]
+14.4 +1.7 42 +15 +15 1015.5 1010.9
Ю 3 16 км 2/0 3300 м
[средняя]
+17.8 +1.1 32 +18 +18 1016.3 1011.9
ЮЗ 4 16 км 2/0 2700 м
[средняя]
+19.4 +2.2 32 +20 +21 1017.1 1012.6 +10.6 +19.4
ЮЗ 4 16 км 2/2 1500 м
[средняя]
+20.0 +2.8 32 +20 +22 1016.9 1012.2
ЮЗ 4 16 км 2/2 1500 м
[средняя]
+20.6 +2.2 30 +21 +23 комфорт 1015.9 1011.2
Ю 6 16 км 2/0 2100 м
[средняя]
+21.1 +3.3 31 +21 +23 комфорт 1015.4 1010.9
Ю 3 16 км 5/0 2100 м
[средняя]
+21.7 +3.3 30 +22 +25 комфорт 1015.4 1010.9
ЮЗ 2 16 км 2/0 2100 м
[средняя верхняя]
+22.8 +1.7 25 +22 +26 комфорт 1015.2 1010.6
Местоположение метеостанции Los Angeles International Airport: широта 33.9381 долгота -118.3889 высота над уровнем моря 38 м.
В архиве по умолчанию представлена погода в Лос-Анджелесе за последние 1-2 суток. Обновление информации о фактической погоде в базе происходит ежечасно! Архивные данные за месяц целиком и за предыдущие месяцы Вы можете получить, выбрав интересующий диапазон дат из раскрывающегося списка и нажав кнопку "Ввод!".
Внимание! Архив погоды МЕТАР в базе сайта по станциям, не включенным в климатический монитор, хранится не более 60 дней. Нет смысла пытаться выбрать более раннюю дату.
*Определитесь, кто Вы:
Внимание! Время в таблицах - всемирное. Для получения местного времени необходимо прибавить поправку, которая равна ч.
Смотрите также архив погоды в соседних городах и на ближайших метеорологических станциях:
Партнеры нашего сайта:      
Пояснения к столбцам:
  • Ветер - указаны скорость ветра в м/с - средняя за 10 мин, порывы в срок и между сроками (в фигурных скобках) и направление, откуда дует ветер: С - северный,
  • СВ - северо-восточный, В - восточный, ЮВ - юго-восточный, Ю - южный, ЮЗ - юго-западный, З - западный, СЗ - северо-западный.
  • Видимость - горизонтальная дальность видимости в метрах или километрах. При видимости от 1 до 10 км при отсутствии осадков обычно наблюдается дымка, при ухудшении видимости до 1 км и менее - туман. В сухую погоду видимость может ухудшаться дымом, пылью или мглою.
  • Явления - указаны атмосферные явления, наблюдавшиеся в срок или в последний час перед сроком; фигурными скобками обозначены явления, наблюдавшиеся между сроками (за 1-3 часа до срока); квадратными скобками обозначены град или гололедные отложения с указанием их диаметра в мм.
  • Облачность - указаны через наклонную черту общая и нижняя облачность в баллах и высота нижней границы облаков в метрах; квадратными скобками обозначены формы облаков: Ci - перистые, Cs - перисто-слоистые, Cc - перисто-кучевые, Ac - высококучевые, As - высокослоистые, Sc - слоисто-кучевые, Ns - слоисто-дождевые, Cu - кучевые, Cb - кучево-дождевые. Подробнее классификацию облаков см. в Атласе облаков (PDF).
  • T - Температура воздуха - температура, измеренная на высоте 2 м над землей.
  • Td - Температура точки росы - температура, при понижении до которой содержащийся в воздухе водяной пар достигнет насыщения.
  • f - Относительная влажность воздуха - влажноcть воздуха, измеренная на высоте 2 м над землей.
  • Te - Эффективная температура - температура, которую ощущает одетый по сезону человек в тени. Характеристика душности погоды. При расчете учитывается влияние влажности воздуха и скорости ветра на теплоощущения человека.
  • Tes - Эффективная температура на солнце - температура, которую ощущает человек, с поправкой на солнечный нагрев. Характеристика знойности погоды. Зависит от высоты солнца над горизонтом, облачности и скорости ветра. Ночью, в пасмурную погоду, а также при ветре 12 м/с и более поправка равна нулю.
  • P - Атмосферное давление - приведенное к уровню моря атмосферное давление.
  • Po - Атмосферное давление - измеренное на уровне метеостанции атмосферное давление.
  • Tmin - Минимальная температура - минимум температуры воздуха на высоте 2 м над землей.
  • Tmax - Максимальная температура - максимум температуры воздуха на высоте 2 м над землей.
  • R - Количество осадков - Количество выпавших осадков за период времени, мм. При наведении курсора мыши на число - период времени, за который выпало указанное количество осадков.
  • R24 - Количество осадков - Количество выпавших осадков за 24 часа, мм.
  • S - Снежный покров - Высота снежного покрова, см. При наведении курсора мыши на число - состояние снежного покрова и степень покрытия местности в баллах.